KUIPER-00476

导读

KUIPER-00476(NORAD编号68874)是亚马逊柯伊伯项目(Project Kuiper)星座中的一颗低轨宽带通信卫星。该项目旨在构建近万颗卫星组成的低轨互联网星座,为全球提供高速低延迟宽带服务。作为2025年4月KA-01任务发射的首批全尺寸卫星之一,KUIPER-00476运行于近地轨道,是原型卫星的技术升级版,在相控阵天线、星间链路等关键系统均有改进,将承担网络测试与初始服务提供任务,助力柯伊伯星座完成早期部署验证,推动全球卫星互联网基础设施建设。

基本信息
目录编号:
68874
目录名称:
KUIPER-00476
国际标识:
2026-095L
轨道中心:
EARTH
卫星名称:
KUIPER-00476
卫星全名:
KUIPER-00476
卫星状态:
在轨 (已飞行129 天)
发射日期:
2026-04-28 UTC
国别 :
美国 (US)
星等 :
--
轨道信息
数据来源 国际轨道数据
星历时间: 2026-09-04T12:00:02+0800
5小时前
查看轨道信息
半长轴: 6869.009km
偏心率: 0.0009416
轨道倾角: 51.877°
近地点辐角 211.203°
升交点赤经 224.165°
平近点角 326.017°
近地点: 484.404km
远地点: 497.34km
周期: 94.428分钟
每日圈数: 15.249713
详细信息
使用方式:
暂无
2D轨道图
3D轨道图
轨道高度分析图
轨道倾角分析图
轨道综合分析图
查看轨道综合分析图